Location: Newark
(40.3500°N, 15.2333°E)
Time: 02:02:52
(UTC+00:00)

NOAA 19 - Pass Details

Date: 26 February 2020
Orbit: 842 x 860 km, 99.2° (Epoch: 08 April)

Event Time Altitude Azimuth Distance (km) Brightness Sun altitude
Rises 04:34:18 0° 18° (NNE) 3,423 8.6 -12.9°
Reaches altitude 10° 04:36:43 10° 23° (NNE) 2,486 7.9 -12.5°
Maximum altitude 04:42:08 55° 101° (E) 1,023 6.1 -11.5°
Drops below altitude 10° 04:47:31 10° 179° (S) 2,482 7.7 -10.4°
Sets 04:49:56 0° 183° (S) 3,416 8.4 -10.0°
